EHI
12 12 11 10 9 8 7 6 5 7 9 8 6 5 3 2 1 0 0 1 1 2 2 2 1 0 0 0 0 0 0 0 0 0 0 0 0 0 0 0 0 0 0
11 11 10 10 9 9 8 7 6 8 10 10 8 7 5 3 2 1 2 3 3 3 3 3 2 0 0 0 0 0 0 0 0 0 0 0 0 0 0 0 0 0 0
10 10 10 10 10 10 10 9 8 9 12 13 11 10 8 5 3 3 4 4 3 2 3 3 2 1 0 0 0 0 0 0 0 0 0 0 0 0 0 0 0 0 0
9 9 10 10 11 12 12 11 11 13 15 15 13 12 11 8 5 3 3 2 1 1 2 3 3 1 0 0 0 0 0 0 0 0 0 0 0 0 0 0 0 0 0
8 9 10 12 14 15 14 14 15 17 18 17 15 14 13 10 6 3 2 1 1 1 2 3 2 1 0 0 0 0 0 0 0 0 0 0 0 0 0 0 0 0 0
6 8 10 13 15 17 16 16 18 19 19 18 16 14 12 9 6 4 2 2 2 3 3 3 1 0 0 0 0 0 0 0 0 0 0 0 0 0 0 0 0 0 0
5 6 8 11 14 15 15 16 18 19 18 17 16 13 10 8 6 5 4 3 4 4 3 2 0 0 0 0 0 0 0 0 0 0 0 0 0 0 0 0 0 0 0
4 5 7 9 11 12 13 14 16 17 16 15 14 12 10 9 6 5 4 4 4 4 3 1 0 0 0 0 0 0 0 0 0 0 0 0 0 0 0 0 0 0 0
6 6 7 7 8 11 13 13 13 14 14 13 12 11 10 9 6 4 3 3 4 4 3 1 0 0 0 0 0 0 0 0 0 0 0 0 0 0 0 0 0 0 0
5 6 7 7 7 9 12 12 12 12 11 12 12 11 10 8 5 2 1 2 5 5 3 2 1 1 1 1 0 0 0 0 0 0 0 0 0 0 0 0 0 0 0
4 5 7 8 8 8 9 10 11 10 9 9 10 10 8 7 4 1 0 2 6 6 4 2 2 2 2 2 1 0 0 0 0 0 0 0 0 0 0 0 0 0 0
5 6 8 8 8 8 9 9 11 10 9 8 8 7 5 4 3 1 1 2 5 6 4 2 2 2 2 2 1 0 0 0 0 0 0 0 0 0 0 0 0 0 0
5 7 8 7 6 7 9 10 11 12 11 8 6 5 3 2 2 1 1 3 4 5 4 2 1 1 1 1 0 0 0 0 0 0 0 0 0 0 0 0 0 0 0
4 5 7 7 5 5 7 8 10 11 11 9 6 4 3 2 1 1 2 4 4 5 5 3 1 0 0 0 0 0 0 0 0 0 0 0 0 0 0 0 0 0 0
3 4 6 6 4 3 4 7 9 10 9 8 6 4 3 2 2 2 3 4 4 4 5 5 3 1 0 0 0 0 0 0 0 0 0 0 0 0 0 0 0 0 0
3 4 6 6 4 3 4 6 8 9 7 6 5 3 1 2 2 3 3 4 3 3 4 4 2 1 0 0 0 0 0 0 0 0 0 0 0 0 0 0 0 0 0
3 4 5 6 5 4 4 6 8 8 6 5 4 2 1 1 2 3 3 3 3 2 1 1 1 0 0 0 0 0 0 0 0 0 0 0 0 0 0 0 0 0 0
2 3 3 3 3 3 4 6 8 8 6 5 4 3 3 2 3 4 3 3 2 1 0 0 0 0 0 0 0 0 0 0 0 0 0 0 0 0 0 0 0 0 0
1 1 1 1 1 2 4 7 9 9 7 5 4 4 4 3 3 4 3 2 1 1 0 0 0 0 0 0 0 0 0 0 0 0 0 0 0 0 0 0 0 0 0
0 1 1 0 1 2 4 7 8 8 6 5 4 3 4 4 4 3 2 1 1 1 1 0 0 0 0 0 0 0 0 0 0 0 0 0 0 0 0 0 0 0 0
1 2 2 2 2 4 6 7 7 6 5 4 3 3 4 4 5 4 1 1 2 2 1 0 0 0 0 0 0 0 0 0 0 0 0 0 0 0 0 0 0 0 0
1 2 2 2 3 5 6 6 5 5 4 3 4 4 5 6 6 5 3 2 3 3 2 1 0 0 0 0 0 0 0 0 0 0 0 0 0 0 0 0 0 0 0
0 1 1 2 4 6 6 6 5 5 4 4 3 3 4 6 6 6 5 4 4 4 2 1 0 0 0 0 0 0 0 0 0 0 0 0 0 0 0 0 0 0 0
1 0 1 3 4 5 5 5 5 6 4 3 2 1 3 4 5 5 6 6 5 3 3 1 1 0 0 0 0 0 0 0 0 0 0 0 0 0 0 0 0 0 0
2 2 3 4 4 4 4 4 4 4 2 1 0 0 1 2 3 4 5 5 4 3 3 2 2 1 0 0 0 0 0 0 0 0 0 0 0 0 0 0 0 0 0
3 3 4 5 4 4 3 3 4 3 1 0 0 0 0 1 2 4 4 3 3 3 2 3 3 2 1 0 0 0 0 0 0 0 0 0 0 0 0 0 0 0 0
Wind_Speed
4 3 4 5 5 5 5 5 5 4 4 3 3 2 2 1 1 1 2 3 3 3 3 2 2 2 2 2 2 2 2 1 1 1 2 2 1 1 1 1 1 1 1
2 3 3 4 6 6 5 5 5 5 5 4 3 2 2 2 1 1 1 2 3 3 3 3 3 3 3 3 3 2 2 1 1 2 1 2 3 2 1 1 1 1 0
6 4 4 5 5 6 6 6 5 5 4 4 3 2 2 2 1 0 0 1 2 3 3 4 3 3 3 3 3 3 3 2 1 1 2 2 1 2 2 1 1 1 0
5 5 5 5 6 6 6 5 6 5 5 5 4 5 3 2 2 1 1 1 1 2 3 3 4 3 3 3 3 3 2 3 2 1 1 1 2 1 1 2 1 1 1
6 6 6 7 6 5 5 5 5 4 4 5 5 4 3 2 1 1 1 1 0 1 2 3 3 3 3 3 3 3 3 2 2 2 1 1 1 1 1 1 2 1 1
5 5 5 4 4 4 4 4 5 4 4 5 4 5 4 3 2 1 1 1 0 1 1 2 3 3 2 3 3 3 3 3 2 2 2 2 2 2 2 2 1 1 1
5 5 5 5 5 5 5 5 5 4 4 5 4 4 4 4 4 3 3 2 1 1 2 2 2 2 2 2 2 3 2 3 3 3 2 2 2 2 2 2 1 1 1
4 5 6 6 6 6 6 5 5 4 4 4 4 3 3 3 3 3 3 3 2 2 2 2 2 2 2 2 2 2 2 2 3 3 2 2 2 2 2 2 2 1 1
4 4 4 5 5 5 5 5 5 3 3 3 3 3 3 3 3 2 2 2 2 2 2 2 2 1 2 2 2 2 2 2 2 2 2 2 2 2 2 2 2 3 2
3 4 4 4 4 4 4 4 4 4 3 3 3 3 2 2 2 2 2 2 2 2 2 2 2 2 2 2 2 2 2 2 2 2 2 2 2 2 2 2 2 2 3
4 4 3 3 3 4 4 3 3 3 3 3 2 2 2 2 2 2 2 2 2 2 2 2 2 2 2 2 2 2 2 2 2 2 2 2 2 1 1 2 2 2 2
3 4 4 3 3 3 3 2 2 2 2 2 2 2 2 2 2 2 2 2 2 2 2 2 2 2 2 2 2 2 2 2 2 2 2 2 1 2 2 2 2 2 2
4 4 4 4 3 3 3 2 2 1 1 2 2 2 2 2 3 2 2 2 2 2 1 2 2 2 2 2 2 2 2 2 2 2 2 2 2 2 2 2 2 2 2
4 4 3 3 3 3 2 2 1 1 1 2 2 2 2 2 2 2 2 2 2 2 2 2 2 2 2 2 2 2 2 2 2 2 2 2 3 3 3 2 3 2 2
4 4 3 2 3 3 2 2 2 2 1 1 1 1 2 1 1 1 1 1 1 1 1 1 1 1 2 2 2 2 2 2 2 2 2 3 3 3 3 2 3 3 2
4 3 3 3 2 3 2 2 1 1 1 1 0 0 0 0 1 1 1 1 1 0 1 1 1 2 2 2 3 2 2 2 2 2 2 2 2 2 3 4 4 5 4
5 4 4 3 3 3 3 2 2 1 1 1 1 1 1 0 0 1 1 1 1 1 1 1 2 2 2 3 2 2 2 3 3 3 2 2 2 2 2 3 3 4 5
4 4 3 3 2 2 2 2 2 2 2 1 1 1 0 0 0 0 1 1 1 2 2 2 2 2 2 3 3 3 3 3 3 3 3 3 3 3 2 2 2 3 4
3 3 3 4 4 3 3 3 3 2 2 1 0 1 1 1 1 1 2 2 1 1 1 2 2 2 3 3 3 3 2 2 3 3 3 4 4 4 4 3 3 3 3
2 2 2 3 3 3 4 3 2 2 1 1 1 2 1 2 2 3 2 1 1 2 1 1 2 2 3 3 3 3 2 2 2 2 3 4 4 5 5 4 4 4 4
2 3 3 3 2 3 4 3 2 2 2 1 1 1 2 2 2 2 2 2 1 1 1 2 2 2 3 3 3 2 2 2 2 2 2 3 4 5 5 5 4 5 3
2 2 3 1 1 2 3 3 2 2 1 1 1 1 2 2 1 1 1 1 1 1 1 1 2 2 2 2 2 2 3 3 3 3 2 2 4 4 5 4 5 4 3
2 1 2 2 1 1 3 3 2 2 2 1 1 1 2 2 1 1 1 1 1 1 1 1 2 2 2 2 3 3 3 3 3 3 3 4 4 3 3 5 5 3 2
1 1 2 2 0 0 1 1 2 1 2 1 1 1 1 2 1 1 1 1 1 2 2 2 2 2 2 2 2 2 2 3 3 3 2 3 3 2 2 2 2 2 3
1 2 2 2 1 1 1 1 1 1 1 1 0 1 1 1 1 1 1 2 2 3 3 3 3 3 3 4 4 3 2 2 2 1 1 1 0 1 1 2 2 2 2
1 1 1 1 1 1 1 1 1 2 2 1 1 1 1 1 1 1 2 2 3 3 4 5 4 4 5 5 4 4 4 3 2 2 1 2 2 2 2 3 3 3 3
Wind_Direction
208 174 170 164 157 157 161 171 163 168 160 155 162 164 185 183 179 201 202 191 181 171 167 163 161 150 150 156 145 130 123 108 90 74 6 344 335 302 285 275 274 273 251
185 180 171 166 167 169 171 172 170 171 176 175 169 164 157 161 165 179 180 180 175 171 174 165 166 156 147 143 143 134 125 115 105 120 93 353 343 337 335 312 266 280 275
193 194 185 186 172 174 179 179 176 176 180 166 138 112 85 70 79 102 157 194 179 174 172 173 165 162 159 165 167 157 152 153 145 127 138 144 254 310 329 335 317 290 246
189 188 186 187 185 185 176 175 169 166 162 155 154 151 155 168 192 181 180 156 159 168 166 166 164 163 166 172 177 166 160 148 160 172 174 170 166 173 320 335 337 303 249
190 189 190 189 185 171 165 165 153 158 153 153 159 158 162 170 151 138 143 142 181 174 160 158 160 166 172 175 170 159 166 165 168 173 168 166 143 155 177 283 323 330 288
192 188 186 171 159 149 152 149 149 158 157 157 161 167 171 170 157 164 178 185 179 172 167 162 163 170 172 175 176 173 175 178 178 181 177 173 171 185 181 205 255 282 285
185 174 167 164 158 159 165 158 155 166 165 165 171 176 175 173 180 183 188 186 178 192 198 171 169 175 182 174 164 168 183 182 186 196 204 205 207 177 170 175 202 248 287
173 178 178 170 166 168 165 161 166 172 164 165 171 174 169 173 188 185 177 185 194 202 190 179 179 183 181 179 166 170 187 183 196 207 204 206 216 192 184 182 169 192 280
163 175 169 164 165 165 164 163 162 164 160 162 160 163 169 177 182 177 170 176 181 180 170 166 173 191 189 182 168 180 194 182 196 210 211 212 222 204 204 194 184 176 214
141 147 156 159 160 156 147 142 150 162 158 155 164 167 169 181 179 161 171 175 176 167 162 170 181 185 185 180 174 185 190 181 197 195 200 223 226 215 203 199 198 192 191
148 137 137 145 135 126 127 130 140 141 153 166 161 159 168 164 162 165 180 181 175 174 175 183 181 187 191 183 179 195 183 188 202 202 204 228 213 202 199 185 185 190 181
135 127 118 98 92 103 117 125 135 145 161 158 154 170 171 155 162 183 188 175 176 183 187 181 182 202 204 187 186 202 192 192 204 217 210 231 212 198 195 181 189 197 195
123 115 112 108 96 89 87 92 96 121 135 142 149 156 162 171 176 186 190 174 168 171 178 176 188 205 208 198 201 204 199 204 212 215 215 225 200 210 200 187 193 204 204
132 125 125 117 108 97 92 90 80 82 124 144 158 180 197 193 181 165 164 167 163 163 176 190 205 205 203 202 209 207 201 205 219 227 223 223 210 211 203 193 198 197 194
137 142 142 131 119 113 94 78 60 46 78 121 149 211 222 197 147 142 156 164 172 177 173 166 205 203 198 206 198 205 215 216 231 245 242 234 221 213 208 204 197 189 190
158 157 146 135 139 138 131 118 91 38 78 106 108 356 110 114 126 141 148 149 150 161 159 190 215 228 235 226 214 208 219 221 220 238 259 252 227 228 220 221 206 190 190
165 163 166 163 165 170 157 160 150 139 143 126 87 58 73 106 214 171 156 176 195 202 223 227 224 237 252 241 235 224 215 219 221 222 232 250 254 230 233 241 231 218 214
170 164 162 160 155 146 143 138 124 121 121 104 91 64 54 333 324 200 221 217 208 216 228 237 241 240 256 245 241 236 225 231 232 222 218 229 248 243 231 228 235 238 234
170 169 171 165 152 151 148 126 116 114 109 139 222 245 228 233 236 239 242 234 220 235 236 242 248 252 274 268 257 235 229 240 244 233 224 224 237 241 225 214 227 246 256
123 122 125 130 137 150 135 124 130 135 174 240 266 263 237 221 230 236 239 230 213 232 236 253 250 249 269 272 264 232 218 235 245 246 240 234 239 238 216 210 218 238 251
97 103 109 122 145 147 136 140 157 204 238 244 260 279 271 252 244 231 228 223 223 226 249 258 265 261 266 265 260 237 215 228 238 248 255 255 245 237 224 214 220 233 237
79 89 100 104 110 136 144 157 198 214 214 217 262 283 293 286 286 219 234 225 191 202 247 262 280 280 273 264 265 254 237 230 231 246 253 260 253 241 233 227 237 232 212
92 86 108 102 88 146 156 179 228 205 193 182 278 299 301 309 300 257 238 222 195 208 238 246 263 281 285 276 268 261 260 247 236 255 256 259 255 244 240 242 235 211 200
100 90 107 111 352 287 155 199 232 190 157 173 295 317 310 316 316 298 261 222 225 232 240 248 262 275 279 283 285 277 271 260 253 267 267 257 249 237 237 239 226 212 205
71 100 128 156 214 260 273 245 213 155 150 167 245 294 302 289 307 301 267 254 240 224 227 240 241 255 272 268 256 244 244 239 241 242 255 266 274 273 259 238 227 217 209
141 140 159 177 246 260 267 266 215 170 169 188 233 248 288 293 289 306 312 287 257 257 240 239 237 245 251 267 263 253 243 239 205 176 233 249 249 249 253 255 241 222 220